Regional Weather Roundup
Issued by NWS

Home | Current Version | Previous Version | Text Only | Print | Product List | Glossary On
Versions: 1 2 3 4 5 6 7 8 9 10 11 12 13 14 15 16 17 18 19 20 21 22 23 24 25 26 27 28 29 30 31 32 33 34 35 36 37 38 39 40 41 42 43 44 45 46 47 48 49 50
000
ASUS43 KDTX 261501
RWRMI
MICHIGAN HOURLY REGIONAL WEATHER ROUNDUP
NATIONAL WEATHER SERVICE DETROIT/PONTIAC MI
1100 AM EDT THU MAY 26 2016

NOTE: "FAIR" INDICATES FEW OR NO CLOUDS BELOW 12,000 FEET WITH NO
SIGNIFICANT WEATHER AND/OR OBSTRUCTION TO VISIBILITY.

MIZ047>049-052>055-059>063-066>070-074>076-081>083-261600-
SOUTHEAST LOWER MICHIGAN

CITY           SKY/WX    TMP DP  RH WIND       PRES   REMARKS
ADRIAN         MOSUNNY   76  65  68 W13       30.00R
ALMA           CLOUDY    72  67  84 SW12      29.96R
ANN ARBOR      SUNNY     76  65  68 SW10      29.98R
BAD AXE        SUNNY     74  63  67 SW8       29.96S
CARO           PTSUNNY   77  65  67 S9        29.95R
DETROIT CITY   SUNNY     78  65  63 SW10      29.97R
DETROIT        PTSUNNY   78  65  63 SW9       29.98S
FLINT          SUNNY     79  64  60 SW9       29.96R
GROSSE ILE     SUNNY     73  66  78 S12       29.97S
HILLSDALE      CLOUDY    75  62  63 SW9       30.00R
HOWELL         CLOUDY    76  66  71 SW9       29.98R

CITY           SKY/WX    TMP DP  RH WIND       PRES   REMARKS
JACKSON        CLOUDY    76  65  68 SW14      29.98S
LAMBERTVILLE   MOSUNNY   79  66  64 SW6       30.00R
LANSING        CLOUDY    74  66  76 SW14G21   29.97S
LAPEER         FAIR      79  62  55 SW8       29.97R
MASON          CLOUDY    75  66  73 SW10      29.98R
MONROE         MOSUNNY   78  67  70 SW9       29.98R
MT. CLEMENS    MOSUNNY   77  67  72 SE10      29.95F
PONTIAC        MOSUNNY   78  63  59 SW7       29.97S
PORT HOPE        N/A     74  63  68 S8        29.93F
PORT HURON     SUNNY     77  63  61 SW7       29.97S
TRI CITIES     PTSUNNY   78  66  66 SW15G23   29.95R
MIDLAND        CLOUDY    75  66  73 SW9       29.93R
TROY           SUNNY     80  65  59 SW9       29.98S
SAGINAW HB     MOSUNNY   77  64  65 SW14G21   29.94R
$$
MIZ043>046-050>051-056>058-064>065-071>073-077>080-261600-
SOUTHWEST LOWER MICHIGAN

CITY           SKY/WX    TMP DP  RH WIND       PRES   REMARKS
BATTLE CREEK   CLOUDY    74  67  78 SW14      29.98S
BENTON HARBOR  PTSUNNY   76  67  73 SW6       29.94F
BIG RAPIDS     CLOUDY    69  67  95 SW7       29.93F FOG
COLDWATER      CLOUDY    75  65  71 SW10      29.99S
FREMONT        CLOUDY    73  71  96 SW13      29.92F
HOLLAND        CLOUDY    75  67  76 SW15      29.95S
GRAND RAPIDS   PTSUNNY   78  68  71 SW10      29.95S
IONIA          CLOUDY    74  66  78 SW9       29.95S
KALAMAZOO      CLOUDY    75  66  73 SW10      29.97S
LUDINGTON      CLOUDY    71  66  84 S12       29.90F
MARSHALL       PTSUNNY   75  66  72 SW14      29.98S
MOUNT PLEASANT CLOUDY    71  67  86 SW9       29.94R
MUSKEGON       PTSUNNY   71  64  78 S16       29.93S
SOUTH HAVEN    CLOUDY    76  68  77 SW8       29.94F
$$
MIZ016>042-261600-
NORTHERN LOWER MICHIGAN

CITY           SKY/WX    TMP DP  RH WIND       PRES   REMARKS
ALPENA         CLOUDY    74  62  66 SE8       29.91F
BEAVER ISLAND  FOG       57  57  99 SW16G22   29.87S VSB 1/2
BELLAIRE       CLOUDY    73  64  72 S8        29.89R
CADILLAC       CLOUDY    68  64  89 SW10      29.94R
CHARLEVOIX     CLOUDY    69  65  85 SW7       29.90S
FRANKFORT      CLOUDY    63  62  95 SW7G17    29.90R FOG
GAYLORD        CLOUDY    71  63  75 SW10      29.91S
GRAYLING       CLOUDY    71  65  81 SW8       29.93R
HARBOR SPRINGS CLOUDY    66  63  87 SW3       29.88S
HOUGHTON LAKE  CLOUDY    68  64  87 SW7       29.94R
MANISTEE       PTSUNNY   72  63  73 S10G16    29.90F
OSCODA         CLOUDY    71  62  71 SW13G18   29.93S
PELLSTON       CLOUDY    67  62  84 S6        29.88F
ROGERS CITY    PTSUNNY   72  61  67 SW6       29.90S
TRAVERSE CITY  CLOUDY    74  65  73 S8        29.87S
$$
MIZ007>008-015-261600-
EASTERN UPPER MICHIGAN

CITY           SKY/WX    TMP DP  RH WIND       PRES   REMARKS
KINROSS          N/A     61  57  88 SE14      29.88S
MACKINAC ISLAN CLOUDY    60  58  96 SE8       29.87S
NEWBERRY       CLOUDY    58  58  97 S10       29.84F FOG
S. S. MARIE    CLOUDY    62  54  74 SE10G17   29.87F
MUNISING         N/A     67  61  81 VRB7      29.80F
$$
MIZ004>006-011>014-085-261600-
CENTRAL UPPER MICHIGAN

CITY           SKY/WX    TMP DP  RH WIND       PRES   REMARKS
MANISTIQUE     FOG       55  54  97 SW7       29.85R VSB 1/4
ESCANABA       CLOUDY    66  61  82 S8        29.83S
MENOMINEE      CLOUDY    61  59  94 S7        29.85S
SAWYER-GWINN   CLOUDY    64  59  82 SW7       29.82F
$$
MIZ001>003-009>011-084-261600-
WESTERN UPPER MICHIGAN

CITY           SKY/WX    TMP DP  RH WIND       PRES   REMARKS
IRON MOUNTAIN  CLOUDY    68  62  81 CALM      29.81F
HOUGHTON       CLOUDY    58  55  90 W8        29.78F
COPPER HARBOR    N/A     46  45  96 N3        29.79S
IRONWOOD       CLOUDY    64  63  94 E3        29.76F
$$

ABBREVIATIONS USED IN REMARKS
   TC - TEMPERATURE IN CELSIUS
  WCI - WIND CHILL INDEX
   HX - HEAT INDEX
  VSB - VISIBILITY





USA.gov is the U.S. government's official web portal to all federal, state and local government web resources and services.